ハーマン彗星

P/1999 D1 ( Hermann )

English version
Home page
Updated on July 11, 1999

---------------------------------------------------------------------

・ プロフィール

発見日 1999年 2月20日
発見光度 18.4等
発見者 S. M. Hermann (Lowell Observatory)

・ 写真集

・ 軌道要素

   The following improved orbital elements by Kenji Muraoka, are 
  from 96 observations  1999 Feb. 15  to  Mar. 26, perturbations 
  by 9 Planets, Moon and 5 minor planets were taken into account. 
   The mean residual is +/- 0.79 arc seconds.

      Epoch  =  1999 Mar.  3.0  TT       JDT = 2451240.5
          T  =  1999 Feb. 18.00434       +/- 0.00520 (m.e.) TT
       Peri. =  173.08259                +/- 0.00661
       Node  =  349.37290                +/- 0.00702   (2000.0)
       Incl. =   21.51265                +/- 0.00422
          q  =    1.6542746              +/- 0.0016780 AU
          e  =    0.7124168              +/- 0.0001946
          a  =    5.7523334              +/- 0.0043474 AU
          n  =    0.07143943             +/- 0.00008099
          P  =   13.796                  +/- 0.0156401  years
                                        (+/- 5.7 days)

・ 星図

・ 光度変化

        m1 = 11.2 + 5 logΔ + 30.0 log r

---------------------------------------------------------------------

軌道要素は村岡健治氏の計算によるものです。
星図は StellaNavigator Ver.2.0 for Windows (アストロアーツ 編著 / アスキー出版局刊) で作成したものです。
光度グラフはComet for Windowsで作成したものです。

---------------------------------------------------------------------

Copyright(C) Seiichi Yoshida (comet@aerith.net). All rights reserved.